STARLINK-32941, 63119

Orbit data source: Space-Track

STARLINK-32941, 63119 is a payload satellite owned by SpaceX/Seattle (US) in LEO that was launched on Thu, 27 Feb 2025 UTC via an FALCON 9 launch vehicle from the Air Force Eastern Test Range (AFETR). Payload-class satellites include a variety of spacecraft equipped with specific instruments for various scientific and technological missions. These include communications satellites like Starlink; space stations such as the ISS; scientific satellites like the Hubble; Earth observation satellites from companies like Planet Labs, Umbra, and HawkEye 360; GPS; miniature CubeSats for education and research; and military/defense satellites.

Loading next visibility...
Identifier
63119, 2025-039R
Orbit
LEO
Country
Flag of USUS
Related business
Manufacturer
SpaceX/Seattle
Mission
Operational Commercial Communications
Bus & Motor
STARLINK V2M, Unknown motor
Mass
730 kg wet, ~700 kg dry
Launch date (UTC)
2025-02-27 (7 months ago)
Launch vehicle
FALCON 9
Launch site
Air Force Eastern Test Range (AFETR)
Object type
Payload
Rocket body
Debris
Shape & HBR
Box + 2 Pan, 14.5 m
Radar Cross Section
33.884 m², Large (>1 m²)

Expand to show TLE details & history
Last TLE update: 2 days ago

TLE from 2 days ago
0 STARLINK-32941
1 63119U 25039R   25260.38656611  .00029523  00000-0  10783-2 0  9992
2 63119  43.0032 260.1327 0001924 260.9503  99.1131 15.27571666 31695
Epoch: 2025-09-17T09:16Z
TLE epoch observation values (Epoch: 2025-09-17T09:16:39.311Z)
Latitude
-0.00004°
Longitude
124.40561°
Altitude
483.059 km
Speed
7.626 km/s
True Right ascension
17h 20m 31s
True Declination
0° 00' 00"
Sunlit
Object was in daylight at epoch
Visualization orbit readout
Latitude
Unknown
Longitude
Unknown
Altitude
Unknown
Speed
Unknown
Apparent Right ascension
Unknown
Apparent Declination
Unknown
Sunlit
N/A
Visualization observer readout
Local Sidereal Time
14:42:14
Azimuth
Unknown
Elevation
Unknown
Doppler factor
Unknown
Orbital elements
Apogee altitude
486.339 km
Perigee altitude
483.698 km
Semi-major axis
6,863.156 km
Eccentricity
0.00019
Inclination
43.0032°
RAAN
260.1327°
Arg. of periapsis
260.9503°
True anomaly
99.13487°
Mean anomaly
99.1131°
Eccentric anomaly
99.12398°
Mean motion
3.81731 °/min
Orbital period
94.31 mins
BSTAR
0.0010783
Loading maneuver chart data...
Computing Atmospheric mass density...
Loading historical data...
Loading historical data...
Loading historical data...
Loading historical data...
Loading historical data...
Loading historical data...
Loading historical data...

Documentation

Showing up to 5 results
|